Welcome to the New NWS' Forecast!
Most changes are behind the scenes, but click here for differences you might notice.
Latest weather observations around

Everett Snohomish County (KPAE)

Using International System of Units (Switch to English Units)
Date/ Time (PST) Wind (kph) Vis. (km) Weather Sky Cond. Temp (°C) Rel. Humidity Wind Chill (°C) Heat Index (°C) Pressure Precip. (cm)
Air Dwpt 6 hour Altimeter (hPa) Sea level (hPa) 1 hr 3 hr 6 hr
Max Min
Jan 23 13:23 5 3.22 Light Rain and Fog/Mist FEW006 BKN024 OVC032 5 4     96% 4   1011.5   0    
Jan 23 13:16 ESE 13 2.82 Rain and Fog/Mist FEW008 OVC024 5 4     96% 2   1011.5   0    
Jan 23 13:13 8 3.22 Light Rain and Fog/Mist OVC024 5 4     96% 3   1011.5   0    
Jan 23 12:53 E 13 4.83 Light Rain and Fog/Mist BKN026 OVC031 5 4     96% 2   1012.2 1012.4 0 0  
Jan 23 12:10 E 13 3.22 Light Rain and Fog/Mist OVC026 5 4     96% 2   1012.5   0    
Jan 23 12:03 5 4.83 Light Rain and Fog/Mist OVC028 5 4     96% 4   1012.9   0    
Jan 23 11:53 ESE 13 9.66 Light Rain and Fog/Mist FEW014 SCT025 OVC031 6 4     92% 3   1013.6 1013.7 0    
Jan 23 10:53 SE 17 14.48 Light Rain FEW030 OVC037 6 4     89% 2   1014.6 1014.8 0    
Jan 23 10:00 SE 18 9.66 Light Rain OVC031 6 3     82% 2   1014.9   0    
Jan 23 09:53 SE 13 11.27 Light Rain OVC024 6 3     82% 3   1015.2 1015.4 0   0
Jan 23 08:53 SE 15 16.09 Light Rain OVC024 6 2     76% 3   1015.6 1015.9 0    
Jan 23 08:31 ESE 18 16.09 Light Rain OVC024 6 1     70% 2   1015.2   0    
Jan 23 07:53 ESE 9 16.09 Light Rain OVC044 6 0     65% 4   1015.6 1015.8 0    
Jan 23 06:53 ESE 17 16.09 Mostly Cloudy FEW075 BKN100 BKN120 5 -1     67% 2   1016.3 1016.7      
Jan 23 05:53 E 11 16.09 Cloudy BKN080 OVC090 4 1     76% 2   1017.3 1017.6      
Jan 23 04:53 E 15 16.09 Mostly Cloudy BKN110 4 1     76% 1   1018.6 1019      
Jan 23 03:53 E 13 16.09 Partly Cloudy SCT110 4 1     79% 1   1020.3 1020.8      
Jan 23 02:53 E 13 16.09 Mostly Cloudy SCT036 BKN049 4 2     83% 1   1022 1022.4      
Jan 23 01:53 E 15 16.09 Cloudy SCT039 OVC048 4 2     83% 1   1022.7 1023.1      
Jan 23 00:53 E 9 16.09 Mostly Cloudy SCT048 BKN120 4 2     86% 2   1023.7 1023.9      
Jan 22 23:53 ESE 9 16.09 Partly Cloudy FEW044 SCT060 4 2     86% 2   1024.4 1024.8      
Jan 22 22:53 9 16.09 Clear CLR 5 2     82% 3   1024.4 1024.9      
Jan 22 21:53 ESE 9 16.09 Clear CLR 4 3     89% 2   1024.4 1024.7      
Jan 22 20:53 ESE 11 16.09 Clear CLR 4 2     86% 2   1024.7 1025      
Jan 22 19:53 ESE 15 16.09 Clear CLR 5 3     86% 2   1025.1 1025.4      
Jan 22 18:53 ESE 15 16.09 Clear CLR 6 3     82% 3   1024.7 1025.1      
Jan 22 17:53 SE 13 16.09 Mostly Clear FEW017 FEW025 6 3     82% 3   1025.1 1025.3      
Jan 22 17:46 SE 9 16.09 Partly Cloudy FEW017 SCT025 6 3     82% 4   1025.1        
Jan 22 16:53 SE 13 16.09 Cloudy OVC024 7 3     76% 4   1025.4 1025.6      
Jan 22 15:53 SSE 17 16.09 Mostly Cloudy BKN025 7 3     76% 4   1025.1 1025.5      
Jan 22 14:53 SSE 17 16.09 Mostly Cloudy SCT022 BKN027 7 3     76% 4   1025.1 1025.2      
Jan 22 13:53 S 18 16.09 Mostly Cloudy BKN017 7 3     76% 4   1024.7 1024.8      
Jan 22 13:03   16.09 Mostly Cloudy BKN017 7 4     80%     1024.4        
Jan 22 12:53   16.09 Clear CLR 7 3     76%     1024.4 1024.5      
Jan 22 12:36   16.09 Partly Cloudy SCT017 7 4     82%     1024.1        
Jan 22 11:53 S 17 16.09 Cloudy OVC017 7 4     82% 4   1024.1 1024.2      
Jan 22 11:35 S 18 16.09 Cloudy OVC017 6 4     86% 3   1023.7        
Jan 22 10:53 S 17 16.09 Cloudy OVC009 6 4     89% 2   1023.4 1023.8      
Jan 22 10:44 S 21 16.09 Cloudy OVC009 6 3     85% 2   1023.4        
Jan 22 09:53 S 21 16.09 Cloudy OVC011 5 3     89% 1   1022.7 1023.2     0
Jan 22 08:53 S 18 16.09 Cloudy OVC010 5 3     89% 1   1021.7 1022.1      
Jan 22 08:03   16.09 Cloudy OVC014 4 3     93%     1020.7        
Jan 22 07:53   16.09 Cloudy OVC015 4 3     93%     1020.3 1020.8      
Jan 22 07:07   16.09 Cloudy BKN014 OVC020 4 3     93%     1019.7        
Jan 22 06:53   16.09 Cloudy BKN017 OVC024 5 3     89%     1019.7 1019.9   0  
Jan 22 06:10   16.09 Mostly Cloudy SCT011 BKN028 4 3     93%     1019.3        
Jan 22 05:53 SSE 21 16.09 Mostly Cloudy BKN011 BKN016 BKN023 4 3     93% 0   1019 1019.4 0    
Jan 22 04:53   16.09 Light Rain BKN011 OVC017 6 4     89%     1019 1019.2 0    
Jan 22 04:36 SSE 24 16.09 Cloudy BKN013 OVC020 6 4     89% 1   1018.6        
Jan 22 04:26   16.09 Cloudy SCT015 OVC021 6 4     89%     1018.6        
Jan 22 04:14   16.09 Cloudy BKN013 BKN018 OVC080 6 4     89%     1018.6        
Jan 22 03:53   16.09 Cloudy SCT011 BKN026 OVC090 6 4     89%     1018 1018.2     0
Jan 22 02:53   16.09 Cloudy FEW014 BKN060 OVC120 5 3     89%     1018 1018.1      
Jan 22 02:20   16.09 Mostly Cloudy BKN015 BKN070 BKN090 6 4     89%     1018        
Jan 22 02:04   16.09 Mostly Cloudy SCT015 SCT070 BKN090 6 4     89%     1017.6        
Jan 22 01:53   16.09 Cloudy BKN018 BKN049 OVC110 6 4     89%     1017.3 1017.6 0    
Jan 22 01:35   16.09 Light Rain FEW016 BKN023 OVC032 6 4     89%     1017.3   0    
Jan 22 01:22   16.09 Light Rain SCT021 BKN030 OVC047 6 4     89%     1017.3   0    
Jan 22 00:53   16.09 Cloudy OVC026 6 3     85%     1016.9 1017.3   0  
Jan 22 00:29   16.09 Cloudy OVC025 6 3     85%     1016.6        
Jan 21 23:53   16.09 Mostly Cloudy FEW028 SCT038 BKN050 6 3     85%     1016.6 1016.8 0    
Jan 21 23:07   16.09 Mostly Cloudy FEW015 SCT022 BKN100 6 4     89%     1016.3        
Jan 21 22:53   16.09 Mostly Cloudy BKN017 BKN022 6 4     89%     1016.3 1016.4 0    
Jan 21 22:17 SE 17 6.44 Light Rain and Fog/Mist FEW015 BKN027 OVC036 6 4     89% 2   1015.9   0    
Jan 21 21:53   14.48 Light Rain SCT026 OVC037 6 3     85%     1015.6 1015.7 0   0
Jan 21 21:46   16.09 Mostly Cloudy FEW024 SCT028 BKN035 6 3     85%     1015.6        
Jan 21 21:31 SE 24 16.09 Cloudy FEW021 BKN026 OVC035 6 3     85% 1   1015.2        
Jan 21 20:53   16.09 Partly Cloudy FEW025 SCT033 6 3     85%     1014.9 1015      
Jan 21 19:53 SE 28 16.09 Mostly Clear FEW020 5 3     89% 0   1014.2 1014.4      
Jan 21 18:53 SE 21 16.09 Clear CLR 5 3     89% 1   1013.6 1013.8   0  
Jan 21 17:53   16.09 Partly Cloudy FEW070 SCT110 6 2     79%     1012.9 1013.2      
Jan 21 16:53   16.09 Cloudy FEW055 BKN090 OVC110 6 3     82%     1011.2 1011.4 0    
Jan 21 15:53 SE 24 16.09 Partly Cloudy FEW065 SCT120 6 4     86% 2   1011.2 1011.3 0   0
Jan 21 14:53   16.09 Light Rain BKN030 BKN050 OVC100 7 4     80%     1010.5 1010.6 0    
Jan 21 13:53   16.09 Mostly Cloudy BKN026 BKN032 8 4     74%     1009.8 1009.8      
Jan 21 13:27   16.09 Mostly Cloudy SCT021 BKN028 BKN033 8 4     76%     1009.5        
Jan 21 12:53   16.09 Mostly Clear FEW017 FEW036 FEW075 8 4     79%     1009.2 1009.3 0 0  
Jan 21 11:53   16.09 Light Rain SCT027 BKN041 OVC050 8 4     79%     1008.5 1008.6 0    
Jan 21 10:53 SE 11 16.09 Light Rain OVC040 7 4     82% 5   1007.8 1008.1 0    
Jan 21 09:53 ESE 18 16.09 Light Rain OVC041 7 4     85% 3   1006.4 1006.7 0   0
Jan 21 08:53 ESE 22 9.66 Light Rain OVC037 7 4     82% 3   1006.8 1006.8 0    
Jan 21 07:53 ESE 30 12.87 Light Rain OVC038 8 4     76% 4   1006.4 1006.6 0    
Jan 21 06:53 ESE 32 14.48 Light Rain OVC039 8 2     65% 4   1007.5 1007.7 0 0  
Jan 21 05:53 ESE 21 16.09 Light Rain OVC044 9 2     59% 7   1008.1 1008.3 0    
Jan 21 04:53   16.09 Light Rain OVC048 9 2     61%     1009.2 1009.3 0    
Jan 21 03:53   16.09 Light Rain FEW055 OVC075 9 2     63%     1010.2 1010.2 0   0
Jan 21 02:53   16.09 Light Rain OVC050 8 3     68%     1010.2 1010.4 0    
Jan 21 01:53   16.09 Light Rain BKN050 OVC070 9 2     63%     1010.8 1011.2 0    
Jan 21 00:53   16.09 Cloudy SCT060 OVC080 9 1     58%     1011.9 1012.2   0  
Jan 20 23:53 ESE 33 16.09 Cloudy and Windy BKN060 OVC090 9 1     58% 5   1012.5 1012.9      
Jan 20 22:53   16.09 Cloudy BKN047 OVC060 8 2     63%     1013.2 1013.4 0    
Jan 20 21:53 SE 32 16.09 Light Rain OVC045 8 2     68% 4   1013.6 1013.7 0   0
Jan 20 20:53   16.09 Cloudy FEW032 BKN045 OVC070 8 2     65%     1013.9 1014.1      
Jan 20 18:53 SE 33 16.09 Mostly Cloudy and Windy BKN040 BKN050 7 3     76% 3   1014.6 1014.9      
Jan 20 17:53 SE 32 16.09 Cloudy and Windy SCT065 BKN080 OVC090 7 4     82% 2   1015.2 1015.7      
Jan 20 16:53   16.09 Partly Cloudy SCT016 7 4     82%     1015.2 1015.6      
Jan 20 15:53 SE 24 16.09 Cloudy SCT019 BKN028 OVC100 7 3     79% 3   1015.9 1016.4     0
Jan 20 15:44   16.09 Cloudy SCT022 BKN030 OVC100 7 3     79%     1016.3        
Jan 20 14:53 ESE 24 16.09 Cloudy BKN019 OVC039 6 3     82% 2   1016.3 1016.4      
Jan 20 13:53 SE 26 16.09 Cloudy BKN019 BKN025 OVC032 6 3     82% 2   1016.6 1016.8      
Jan 20 13:00 SE 30 16.09 Mostly Cloudy BKN013 BKN032 BKN100 6 4     86% 2   1016.6        
Jun 11 21:53 8 16.09 Clear CLR 13 9     77%     1015.9 1015.8      
Jun 11 20:53 NW 8 16.09 Clear   14 9     70%     1015.9 1015.7      
Jun 11 19:53 NW 9 16.09 Clear   17 7     52%     1015.9 1015.6      
Jun 11 11:53 WSW 11 16.09 Clear CLR 15 11     75%     1017.6 1017.5      
Jun 10 23:53 N 9 16.09 Clear   12 9     80%     1014.2 1014.3      
Jun 10 16:53 NW 11 16.09 Clear CLR 16 6     52%     1011.5 1011.6      
Notice The following observation data may not be complete
Jun 10 02:39   16.09 Cloudy BKN015 OVC080          %              
Jun 10 01:48   16.09 Cloudy FEW016 BKN070 OVC085 11 8     82%     1011.5        
Jun 09 11:10 Calm 16.09 Cloudy FEW025 BKN031 OVC080 13 8     72%     1012.2        
Jun 09 06:53 ESE 15 16.09 Cloudy OVC055 10 8     86% 8   1012.9 1012.8      
Jun 09 02:53 SSE 13 16.09 Mostly Cloudy BKN070 11 7     79%     1014.2 1014      
Jun 08 07:29 SSE 13 12.87 Light Rain SCT004 BKN009 BKN045 13 12     93%     1003.7   0    
Jun 06 05:53 WNW 5 16.09 Clear CLR 11 9     86%     1016.9 1016.6      
Jun 05 22:53 8 16.09 Clear CLR 12 8     80%     1018.6 1018.5      
Jun 05 18:53 NW 11 16.09 Clear CLR 18 8     52%     1018.3 1018.4